Погода в Оленьковском

Россия / Тульская область     54˚34′32″N   38˚06′04″E
темп.,
°C
ветер,
м/с
пор.,
м/с
влажн.,
%
обл.,
%
осадки,
мм/ч
давл.,
гПа
погр.,
м
17 января, вс
вс1700:00−17˚сз4896100 0.8 1008574
03:00−18˚сз4895100 1.1 1010448
06:00−20˚сз3797100 0.1 1011255
09:00−23˚ссз369899 0.1 1013135
12:00−22˚ссз349793 0.0 1016205
15:00−22˚с359790 0.1 1016216
18:00−26˚с1210054 0.0 101819
21:00−26˚с229950 0.0 101919
18 января, пн
пн1800:00−25˚ссв2298100 0.0 101920
03:00−27˚с1110080 0.0 102019
06:00−27˚с1110054 0.0 102019
09:00−27˚св0110077 0.0 102120
12:00−21˚всв119477 0.0 1020119
15:00−20˚ссз119589 0.0 101953
18:00−22˚с2295100 0.0 101920
21:00−21˚сз1194100 0.0 101920
19 января, вт
вт1900:00−20˚ссз1294100 0.0 101934
03:00−20˚ссз1193100 0.0 101820
06:00−20˚ссз1194100 0.0 101720
09:00−20˚ссз1194100 0.0 101820
12:00−17˚ссз1189100 0.0 1017183
15:00−16˚сз2293100 0.0 1016219
18:00−18˚сз2397100 0.0 101732
21:00−17˚ссз2297100 0.1 101829
20 января, ср
ср2000:00−19˚сз239996 0.0 101920
03:00−19˚сз229995 0.1 102020
06:00−18˚зсз239894 0.1 102142
09:00−18˚зсз339790 0.1 102250
12:00−15˚зсз349580 0.0 1023149
15:00−14˚з249571 0.0 1023148
18:00−17˚з33960 0.0 102420
21:00−18˚зюз34970 0.0 102530
21 января, чт
чт2100:00−18˚зюз34970 0.0 102554
03:00−18˚юз47970 0.0 102588
06:00−18˚юз479767 0.0 1024123
09:00−17˚ююз5109466 0.0 1024173
12:00−12˚ююз61291100 0.0 1022285
15:00−9˚ююз7149398 0.0 1019436
18:00−7˚юз7149399 0.3 1018515
21:00−6˚юз7149299 0.6 1016511